{"data":{"norad_id":68603,"intl_designator":"2026-073B","name":"STARLINK-37189","alt_names":[],"object_type":"PAYLOAD","status":"ACTIVE","operator":null,"country":"US","launch_date":"2026-04-07","launch_site_code":"AFWTR","launch_vehicle":null,"mission":null,"orbit_class":"UNKNOWN","rcs_meters":null,"size_class":null,"mass_kg":null,"dimensions":null,"purposes":["comms"],"wikipedia_slug":null,"has_3d_model":false,"image_url":null,"decayed_at":null,"tle_current":{"epoch":"2026-09-19T22:53:28.940352Z","epoch_age_seconds":91414,"freshness":"FRESH","line1":"1 68603U 26073B   26262.95380718  .00012144  00000+0  37840-3 0  9996","line2":"2 68603  97.2856 100.9260 0000863 131.7179 228.4138 15.33401651 25651","mean_motion":15.33401651,"eccentricity":8.63e-5,"inclination_deg":97.2856,"raan_deg":100.926,"arg_perigee_deg":131.7179,"mean_anomaly_deg":228.4138,"bstar":0.0003784,"rev_number":2565,"period_min":93.908859369032,"perigee_km":465.08153291199,"apogee_km":466.26277437191,"semimajor_km":6843.8091536419,"source":"CELESTRAK","updated_at":"2026-09-20T09:00:43.941058Z"}}}